Location: Asheville, NC
(35.6000°N, 82.5500°W)
Time: 09:44:26
(UTC-04:00)

ITAMSAT 1 - Pass Details

Date: 14 March 2018
Orbit: 784 x 796 km, 98.9° (Epoch: 24 June)

Event Time Altitude Azimuth Distance (km) Brightness Sun altitude
Rises 04:05:00 0° 39° (NE) 3,297 11.6 -42.8°
Reaches altitude 10° 04:09:13 10° 73° (ENE) 2,359 10.7 -42.1°
Maximum altitude 04:10:52 11° 91° (E) 2,255 10.5 -41.8°
Enters shadow 04:11:09 11° 95° (E) 2,258 10.4 -41.8°
